EGG

Last updated on May 16, 2017, 12:15 a.m. UTC

1 41934U 98067KW  17134.58632542  .08429926  12146-4  22100-2 0  9997
2 41934  51.6182 194.2940 0005621  10.1440 349.6758 16.27713558 18511

Satellite is not in orbit.